Weather History for Gage, OK

Change the Weather History Date:

Monday, October 24, 2011

  Actual Average Record
Temperature  
Mean Temperature 65 °F -  
Max Temperature 86 °F 68 °F 87 °F (2012)
Min Temperature 44 °F 40 °F 21 °F (2005)
Growing Degree Days 15 (Base 50)    
Moisture  
Dew Point 37 °F    
Average Humidity 40    
Maximum Humidity 79    
Minimum Humidity 14    
Precipitation  
Precipitation 0.00 in - - ()
Sea Level Pressure  
Sea Level Pressure 30.01 in    
Wind  
Wind Speed 12 mph (SSW)    
Max Wind Speed 32 mph    
Max Gust Speed 41 mph    
Visibility 10 miles    
Events      
Averages and records for this station are not official NWS values.
T = Trace of Precipitation, MM = Missing Value Source: NWS Daily Summary

Daily Weather History Graph

Daily Weather History Graph

Search for Another Location

Airport:

Trip Planner

Search our weather history database for the weather conditions in past years. The results will help you decide how hot, cold, wet, or windy it might be!

Date:

Astronomy

Oct. 24, 2011 Rise Set
Actual Time 7:54 AM CDT 6:51 PM CDT
Civil Twilight 7:27 AM CDT 7:18 PM CDT
Nautical Twilight 6:57 AM CDT 7:48 PM CDT
Astronomical Twilight 6:27 AM CDT 8:18 PM CDT
Moon 5:18 AM CDT (10/24) 5:15 PM CDT (10/24)
Length of Visible Light 11h 50m
Length of Day
10h 57m
Waning Crescent, 7% of the Moon is Illuminated
Oct 24
Waning Crescent
Oct 26
New
Nov 2
First Quarter
Nov 10
Full
Nov 18
Last Quarter

Hourly Weather History & Observations

Time (CDT) Temp. Windchill Dew Point Humidity Pressure Visibility Wind Dir Wind Speed Gust Speed Precip Events Conditions
12:53 AM 48.9 °F - 37.9 °F 66% 30.09 in 10.0 mi SSE 4.6 mph - N/A   Clear
2:53 AM 52.0 °F - 39.0 °F 61% 30.08 in 10.0 mi South 8.1 mph - N/A   Clear
3:53 AM 52.0 °F - 39.0 °F 61% 30.08 in 10.0 mi Calm Calm - N/A   Clear
4:53 AM 46.9 °F - 37.9 °F 71% 30.08 in 10.0 mi Calm Calm - N/A   Clear
5:53 AM 46.0 °F 44.8 °F 37.9 °F 73% 30.08 in 10.0 mi SSW 3.5 mph - N/A   Clear
6:53 AM 44.1 °F 42.5 °F 37.9 °F 79% 30.10 in 10.0 mi West 3.5 mph - N/A   Clear
7:53 AM 44.1 °F 41.5 °F 37.9 °F 79% 30.12 in 10.0 mi WSW 4.6 mph - N/A   Clear
8:53 AM 50.0 °F - 42.1 °F 74% 30.13 in 10.0 mi SSW 3.5 mph - N/A   Clear
9:53 AM 63.0 °F - 43.0 °F 48% 30.13 in 10.0 mi SW 9.2 mph - N/A   Clear
10:53 AM 71.1 °F - 39.9 °F 32% 30.11 in 10.0 mi SW 10.4 mph - N/A   Clear
11:53 AM 75.9 °F - 37.0 °F 24% 30.09 in 10.0 mi SSW 21.9 mph 28.8 mph N/A   Clear
12:53 PM 82.9 °F - 33.1 °F 17% 30.05 in 10.0 mi SSW 24.2 mph 29.9 mph N/A   Clear
1:53 PM 84.9 °F - 33.1 °F 16% 30.00 in 10.0 mi SSW 27.6 mph 34.5 mph N/A   Clear
2:53 PM 86.0 °F - 30.9 °F 14% 29.96 in 10.0 mi South 29.9 mph 39.1 mph N/A   Clear
3:53 PM 84.9 °F - 35.1 °F 17% 29.94 in 10.0 mi SSW 29.9 mph 38.0 mph N/A   Clear
4:53 PM 84.0 °F - 34.0 °F 17% 29.92 in 10.0 mi South 26.5 mph 41.4 mph N/A   Clear
5:53 PM 82.0 °F - 35.1 °F 18% 29.91 in 10.0 mi South 23.0 mph 34.5 mph N/A   Clear
6:53 PM 78.8 °F - 35.6 °F 21% 29.96 in 10.0 mi South 23.0 mph 31.1 mph N/A   Clear
7:53 PM 75.0 °F - 36.0 °F 24% 29.92 in 10.0 mi South 24.2 mph 31.1 mph N/A   Clear
8:53 PM 73.0 °F - 35.1 °F 25% 29.91 in 10.0 mi South 24.2 mph 32.2 mph N/A   Clear
9:53 PM 72.0 °F - 37.9 °F 29% 29.90 in 10.0 mi South 27.6 mph 35.7 mph N/A   Clear
10:53 PM 71.1 °F - 37.9 °F 30% 29.89 in 10.0 mi South 29.9 mph 39.1 mph N/A   Clear
11:53 PM 68.0 °F - 37.0 °F 32% 29.88 in 10.0 mi South 32.2 mph 39.1 mph N/A   Clear